| time (UTC) | temp F | wind direction | speed knots | gust knots | rain 1hr in | rain 24hr in | rain mn in | humidity % | barometer mb |
| 20260505212532 | 78 | 0 | 0.9 | 4.3 | 0.00 | 0.00 | 0.00 | 44 | 1014.0 |
| 20260505212034 | 78 | 0 | 0.0 | 3.5 | 0.00 | 0.00 | 0.00 | 49 | 1013.9 |
| 20260505211542 | 77 | 0 | 0.0 | 3.5 | 0.00 | 0.00 | 0.00 | 46 | 1014.0 |
| 20260505211033 | 77 | 0 | 0.0 | 3.5 | 0.00 | 0.00 | 0.00 | 45 | 1014.0 |
| 20260505210531 | 77 | 0 | 0.0 | 3.5 | 0.00 | 0.00 | 0.00 | 44 | 1014.1 |
| 20260505210042 | 77 | 0 | 0.0 | 2.6 | 0.00 | 0.00 | 0.00 | 44 | 1014.1 |
| 20260505205530 | 77 | 0 | 0.0 | 4.3 | 0.00 | 0.00 | 0.00 | 46 | 1014.1 |
| 20260505205034 | 77 | 0 | 0.0 | 7.8 | 0.00 | 0.00 | 0.00 | 44 | 1014.1 |
| 20260505204553 | 78 | 0 | 0.0 | 7.8 | 0.00 | 0.00 | 0.00 | 44 | 1014.2 |
| 20260505204031 | 78 | 0 | 0.0 | 7.0 | 0.00 | 0.00 | 0.00 | 43 | 1014.2 |
| 20260505203531 | 78 | 0 | 0.0 | 7.0 | 0.00 | 0.00 | 0.00 | 46 | 1014.3 |
| 20260505203052 | 78 | 187 | 0.9 | 7.0 | 0.00 | 0.00 | 0.00 | 42 | 1014.4 |
| 20260505202532 | 77 | 0 | 0.0 | 7.0 | 0.00 | 0.00 | 0.00 | 44 | 1014.3 |
| 20260505202033 | 77 | 0 | 0.0 | 7.0 | 0.00 | 0.00 | 0.00 | 44 | 1014.3 |
| 20260505201547 | 77 | 292 | 0.0 | 7.8 | 0.00 | 0.00 | 0.00 | 44 | 1014.4 |
| 20260505201033 | 77 | 0 | 0.0 | 7.8 | 0.00 | 0.00 | 0.00 | 43 | 1014.5 |
| 20260505200532 | 78 | 0 | 0.9 | 6.1 | 0.00 | 0.00 | 0.00 | 42 | 1014.6 |
| 20260505200100 | 78 | 0 | 0.9 | 6.1 | 0.00 | 0.00 | 0.00 | 43 | 1014.7 |
| 20260505195533 | 78 | 84 | 0.0 | 7.8 | 0.00 | 0.00 | 0.00 | 42 | 1014.8 |
| 20260505195037 | 78 | 0 | 0.9 | 7.8 | 0.00 | 0.00 | 0.00 | 43 | 1014.9 |
| 20260505194548 | 78 | 0 | 0.9 | 6.1 | 0.00 | 0.00 | 0.00 | 45 | 1015.0 |
| 20260505194033 | 78 | 28 | 0.0 | 7.8 | 0.00 | 0.00 | 0.00 | 40 | 1014.9 |
| 20260505193531 | 78 | 0 | 0.0 | 7.8 | 0.00 | 0.00 | 0.00 | 42 | 1014.9 |
| 20260505193048 | 78 | 0 | 0.0 | 7.8 | 0.00 | 0.00 | 0.00 | 39 | 1015.2 |
| 20260505192535 | 78 | 352 | 0.0 | 3.5 | 0.00 | 0.00 | 0.00 | 40 | 1015.2 |
| 20260505192032 | 78 | 0 | 0.0 | 2.6 | 0.00 | 0.00 | 0.00 | 42 | 1015.4 |
| 20260505191542 | 78 | 213 | 0.0 | 4.3 | 0.00 | 0.00 | 0.00 | 39 | 1015.5 |
| 20260505191033 | 77 | 0 | 0.0 | 4.3 | 0.00 | 0.00 | 0.00 | 44 | 1015.5 |
| 20260505190529 | 77 | 0 | 0.0 | 4.3 | 0.00 | 0.00 | 0.00 | 43 | 1015.4 |
| 20260505190042 | 76 | 0 | 0.0 | 4.3 | 0.00 | 0.00 | 0.00 | 44 | 1015.4 |
| 20260505185533 | 76 | 0 | 0.0 | 9.6 | 0.00 | 0.00 | 0.00 | 43 | 1015.5 |
| 20260505185032 | 76 | 314 | 1.7 | 9.6 | 0.00 | 0.00 | 0.00 | 43 | 1015.6 |
| 20260505184541 | 76 | 240 | 1.7 | 9.6 | 0.00 | 0.00 | 0.00 | 43 | 1015.7 |
| 20260505184032 | 76 | 0 | 2.6 | 7.0 | 0.00 | 0.00 | 0.00 | 43 | 1015.6 |
| 20260505183532 | 76 | 223 | 0.0 | 10.4 | 0.00 | 0.00 | 0.00 | 45 | 1015.7 |
| 20260505183047 | 76 | 0 | 1.7 | 10.4 | 0.00 | 0.00 | 0.00 | 43 | 1015.7 |
| 20260505182533 | 77 | 184 | 0.9 | 7.8 | 0.00 | 0.00 | 0.00 | 43 | 1015.8 |
| 20260505182032 | 77 | 279 | 0.9 | 7.0 | 0.00 | 0.00 | 0.00 | 43 | 1016.0 |
| 20260505181543 | 77 | 0 | 0.9 | 8.7 | 0.00 | 0.00 | 0.00 | 43 | 1015.9 |
| 20260505181036 | 78 | 0 | 0.0 | 8.7 | 0.00 | 0.00 | 0.00 | 44 | 1016.1 |
| 20260505180533 | 78 | 306 | 0.0 | 10.4 | 0.00 | 0.00 | 0.00 | 44 | 1016.3 |
| 20260505180103 | 77 | 0 | 0.0 | 11.3 | 0.00 | 0.00 | 0.00 | 44 | 1016.2 |
| 20260505175533 | 77 | 231 | 2.6 | 11.3 | 0.00 | 0.00 | 0.00 | 41 | 1016.3 |
| 20260505175036 | 77 | 292 | 0.9 | 8.7 | 0.00 | 0.00 | 0.00 | 43 | 1016.4 |
| 20260505174558 | 77 | 32 | 1.7 | 8.7 | 0.00 | 0.00 | 0.00 | 44 | 1016.4 |
| 20260505174033 | 77 | 250 | 0.0 | 7.8 | 0.00 | 0.00 | 0.00 | 43 | 1016.4 |
| 20260505173533 | 76 | 360 | 0.0 | 6.1 | 0.00 | 0.00 | 0.00 | 42 | 1016.4 |
| 20260505173047 | 76 | 0 | 0.9 | 6.1 | 0.00 | 0.00 | 0.00 | 43 | 1016.4 |
| 20260505172534 | 76 | 296 | 0.9 | 7.0 | 0.00 | 0.00 | 0.00 | 44 | 1016.5 |
| 20260505172035 | 75 | 300 | 1.7 | 7.8 | 0.00 | 0.00 | 0.00 | 45 | 1016.5 |
| 20260505171547 | 75 | 240 | 2.6 | 7.8 | 0.00 | 0.00 | 0.00 | 41 | 1016.5 |
| 20260505171032 | 75 | 30 | 0.0 | 7.8 | 0.00 | 0.00 | 0.00 | 46 | 1016.4 |
| 20260505170529 | 75 | 0 | 0.0 | 7.8 | 0.00 | 0.00 | 0.00 | 45 | 1016.5 |
| 20260505170048 | 75 | 266 | 0.9 | 10.4 | 0.00 | 0.00 | 0.00 | 46 | 1016.4 |
| 20260505165533 | 74 | 216 | 0.9 | 10.4 | 0.00 | 0.00 | 0.00 | 48 | 1016.6 |
| 20260505165033 | 74 | 339 | 0.0 | 6.1 | 0.00 | 0.00 | 0.00 | 50 | 1016.6 |
| 20260505164547 | 74 | 0 | 0.9 | 6.1 | 0.00 | 0.00 | 0.00 | 46 | 1016.6 |
| 20260505164031 | 74 | 0 | 0.0 | 6.1 | 0.00 | 0.00 | 0.00 | 44 | 1016.5 |
| 20260505163533 | 74 | 0 | 0.0 | 6.1 | 0.00 | 0.00 | 0.00 | 47 | 1016.5 |
| 20260505163053 | 74 | 352 | 0.0 | 7.8 | 0.00 | 0.00 | 0.00 | 47 | 1016.6 |
| 20260505162532 | 74 | 49 | 0.0 | 7.8 | 0.00 | 0.00 | 0.00 | 47 | 1016.5 |
| 20260505162033 | 74 | 0 | 0.0 | 6.1 | 0.00 | 0.00 | 0.00 | 48 | 1016.4 |
| 20260505161554 | 73 | 0 | 0.0 | 6.1 | 0.00 | 0.00 | 0.00 | 49 | 1016.6 |
| 20260505161034 | 73 | 0 | 0.0 | 3.5 | 0.00 | 0.00 | 0.00 | 50 | 1016.7 |
| 20260505160533 | 73 | 0 | 0.0 | 4.3 | 0.00 | 0.00 | 0.00 | 51 | 1016.8 |
| 20260505153051 | 72 | 0 | 0.0 | 4.3 | 0.00 | 0.00 | 0.00 | 53 | 1017.0 |
| 20260505152535 | 72 | 0 | 0.0 | 4.3 | 0.00 | 0.00 | 0.00 | 56 | 1017.1 |
| 20260505152030 | 71 | 0 | 0.0 | 2.6 | 0.00 | 0.00 | 0.00 | 55 | 1017.1 |
| 20260505151548 | 71 | 0 | 0.0 | 2.6 | 0.00 | 0.00 | 0.00 | 55 | 1017.2 |
| 20260505151033 | 71 | 0 | 0.0 | 2.6 | 0.00 | 0.00 | 0.00 | 53 | 1017.2 |
| 20260505150534 | 71 | 0 | 0.0 | 2.6 | 0.00 | 0.00 | 0.00 | 58 | 1017.3 |
| 20260505140533 | 64 | 0 | 0.0 | 0.9 | 0.00 | 0.00 | 0.00 | 66 | 1016.8 |
| 20260505125031 | 55 | 0 | 0.0 | 2.6 | 0.00 | 0.00 | 0.00 | 82 | 1016.6 |
| 20260505124547 | 54 | 0 | 0.0 | 0.9 | 0.00 | 0.00 | 0.00 | 84 | 1016.7 |
| 20260505124035 | 53 | 0 | 0.0 | 0.9 | 0.00 | 0.00 | 0.00 | 87 | 1016.7 |
| 20260505123530 | 52 | 0 | 0.0 | 0.9 | 0.00 | 0.00 | 0.00 | 89 | 1016.8 |
| 20260505123054 | 51 | 0 | 0.0 | 0.9 | 0.00 | 0.00 | 0.00 | 91 | 1016.7 |
| 20260505122531 | 50 | 0 | 0.0 | 0.9 | 0.00 | 0.00 | 0.00 | 91 | 1016.6 |
| 20260505122035 | 49 | 0 | 0.0 | 0.0 | 0.00 | 0.00 | 0.00 | 92 | 1016.5 |
| 20260505121543 | 49 | 0 | 0.0 | 0.0 | 0.00 | 0.00 | 0.00 | 92 | 1016.5 |
| 20260505121031 | 49 | 0 | 0.0 | 0.9 | 0.00 | 0.00 | 0.00 | 92 | 1016.5 |
| 20260505120533 | 48 | 0 | 0.0 | 0.9 | 0.00 | 0.00 | 0.00 | 92 | 1016.5 |
| 20260505120049 | 48 | 0 | 0.0 | 0.9 | 0.00 | 0.00 | 0.00 | 92 | 1016.3 |
| 20260505115531 | 48 | 0 | 0.0 | 0.9 | 0.00 | 0.00 | 0.00 | 92 | 1016.3 |
| 20260505115033 | 47 | 0 | 0.0 | 0.9 | 0.00 | 0.00 | 0.00 | 92 | 1016.3 |
| 20260505114547 | 47 | 0 | 0.0 | 0.9 | 0.00 | 0.00 | 0.00 | 93 | 1016.3 |
| 20260505114030 | 47 | 0 | 0.0 | 0.9 | 0.00 | 0.00 | 0.00 | 93 | 1016.3 |
| 20260505113530 | 47 | 0 | 0.0 | 0.9 | 0.00 | 0.00 | 0.00 | 93 | 1016.3 |
| 20260505113046 | 47 | 0 | 0.0 | 0.9 | 0.00 | 0.00 | 0.00 | 93 | 1016.2 |
| 20260505112531 | 46 | 0 | 0.0 | 0.9 | 0.00 | 0.00 | 0.00 | 93 | 1016.2 |
| 20260505112032 | 46 | 0 | 0.0 | 0.9 | 0.00 | 0.00 | 0.00 | 93 | 1016.2 |
| 20260505111543 | 46 | 0 | 0.0 | 0.9 | 0.00 | 0.00 | 0.00 | 92 | 1016.1 |
| 20260505111031 | 46 | 0 | 0.0 | 0.9 | 0.00 | 0.00 | 0.00 | 92 | 1016.2 |
| 20260505110530 | 46 | 0 | 0.0 | 0.9 | 0.00 | 0.00 | 0.00 | 92 | 1016.1 |
| 20260505102032 | 47 | 0 | 0.0 | 0.9 | 0.00 | 0.00 | 0.00 | 90 | 1016.1 |
| 20260505101542 | 47 | 0 | 0.0 | 0.9 | 0.00 | 0.00 | 0.00 | 89 | 1016.0 |
| 20260505101032 | 47 | 0 | 0.0 | 0.9 | 0.00 | 0.00 | 0.00 | 89 | 1016.0 |
| 20260505100532 | 48 | 0 | 0.0 | 0.9 | 0.00 | 0.00 | 0.00 | 89 | 1016.0 |
| 20260505100047 | 48 | 0 | 0.0 | 1.7 | 0.00 | 0.00 | 0.00 | 89 | 1015.9 |
| 20260505095532 | 48 | 0 | 0.0 | 1.7 | 0.00 | 0.00 | 0.00 | 88 | 1015.8 |
| 20260505095036 | 48 | 0 | 0.0 | 0.9 | 0.00 | 0.00 | 0.00 | 88 | 1015.7 |
| 20260505094544 | 48 | 0 | 0.0 | 0.9 | 0.00 | 0.00 | 0.00 | 88 | 1015.8 |
| 20260505094032 | 49 | 0 | 0.0 | 1.7 | 0.00 | 0.00 | 0.00 | 87 | 1015.7 |
| 20260505093531 | 49 | 0 | 0.0 | 1.7 | 0.00 | 0.00 | 0.00 | 87 | 1015.8 |
| 20260505093048 | 49 | 98 | 0.0 | 1.7 | 0.00 | 0.00 | 0.00 | 87 | 1015.7 |
| 20260505092532 | 49 | 0 | 0.0 | 1.7 | 0.00 | 0.00 | 0.00 | 87 | 1015.8 |
| 20260505092032 | 49 | 0 | 0.0 | 2.6 | 0.00 | 0.00 | 0.00 | 86 | 1015.8 |
| 20260505091601 | 49 | 98 | 0.9 | 2.6 | 0.00 | 0.00 | 0.00 | 86 | 1015.7 |
| 20260505091032 | 49 | 0 | 0.0 | 1.7 | 0.00 | 0.00 | 0.00 | 86 | 1015.8 |
| 20260505090532 | 50 | 98 | 0.0 | 1.7 | 0.00 | 0.00 | 0.00 | 85 | 1015.7 |
| 20260505090045 | 50 | 98 | 0.0 | 1.7 | 0.00 | 0.00 | 0.00 | 85 | 1015.6 |
| 20260505085536 | 50 | 98 | 0.0 | 1.7 | 0.00 | 0.00 | 0.00 | 85 | 1015.6 |
| 20260505085033 | 50 | 0 | 0.0 | 1.7 | 0.00 | 0.00 | 0.00 | 84 | 1015.5 |
| 20260505084544 | 50 | 98 | 0.9 | 1.7 | 0.00 | 0.00 | 0.00 | 84 | 1015.4 |
| 20260505084032 | 50 | 98 | 0.0 | 1.7 | 0.00 | 0.00 | 0.00 | 84 | 1015.3 |
| 20260505083531 | 51 | 98 | 0.0 | 1.7 | 0.00 | 0.00 | 0.00 | 83 | 1015.3 |
| 20260505083041 | 51 | 0 | 0.0 | 1.7 | 0.00 | 0.00 | 0.00 | 83 | 1015.2 |
| 20260505082531 | 51 | 0 | 0.0 | 1.7 | 0.00 | 0.00 | 0.00 | 82 | 1015.2 |
| 20260505082031 | 51 | 98 | 0.0 | 1.7 | 0.00 | 0.00 | 0.00 | 81 | 1015.1 |
| 20260505081557 | 52 | 0 | 0.0 | 1.7 | 0.00 | 0.00 | 0.00 | 81 | 1015.0 |
| 20260505081033 | 52 | 98 | 0.0 | 1.7 | 0.00 | 0.00 | 0.00 | 81 | 1014.9 |
| 20260505080531 | 53 | 98 | 0.0 | 1.7 | 0.00 | 0.00 | 0.00 | 79 | 1014.7 |
| 20260505080058 | 53 | 0 | 0.0 | 1.7 | 0.00 | 0.00 | 0.00 | 79 | 1014.6 |
| 20260505075532 | 53 | 0 | 0.0 | 1.7 | 0.00 | 0.00 | 0.00 | 79 | 1014.6 |
| 20260505075032 | 53 | 98 | 0.0 | 1.7 | 0.00 | 0.00 | 0.00 | 79 | 1014.5 |
| 20260505074544 | 53 | 98 | 0.9 | 2.6 | 0.00 | 0.00 | 0.00 | 79 | 1014.6 |
| 20260505074032 | 53 | 98 | 0.9 | 3.5 | 0.00 | 0.00 | 0.00 | 78 | 1014.7 |
| 20260505073532 | 54 | 98 | 0.9 | 3.5 | 0.00 | 0.00 | 0.00 | 78 | 1014.7 |
| 20260505073051 | 54 | 98 | 0.9 | 1.7 | 0.00 | 0.00 | 0.00 | 79 | 1014.5 |
| 20260505072535 | 54 | 0 | 0.0 | 1.7 | 0.00 | 0.00 | 0.00 | 80 | 1014.6 |
| 20260505072031 | 53 | 0 | 0.0 | 0.9 | 0.00 | 0.00 | 0.00 | 80 | 1014.6 |
| 20260505071555 | 53 | 0 | 0.0 | 1.7 | 0.00 | 0.00 | 0.00 | 80 | 1014.6 |
| 20260505071031 | 53 | 0 | 0.0 | 1.7 | 0.00 | 0.00 | 0.00 | 81 | 1014.8 |
| 20260505070534 | 53 | 0 | 0.0 | 1.7 | 0.00 | 0.00 | 0.00 | 80 | 1014.8 |
| 20260505070050 | 53 | 98 | 0.0 | 1.7 | 0.00 | 0.00 | 0.00 | 80 | 1014.9 |
| 20260505065532 | 53 | 98 | 0.0 | 1.7 | 0.00 | 0.00 | 0.00 | 81 | 1014.9 |
| 20260505065032 | 53 | 0 | 0.0 | 1.7 | 0.00 | 0.00 | 0.00 | 80 | 1014.9 |
| 20260505064545 | 53 | 0 | 0.0 | 0.0 | 0.00 | 0.00 | 0.00 | 80 | 1014.9 |
| 20260505064032 | 53 | 0 | 0.0 | 0.9 | 0.00 | 0.00 | 0.00 | 80 | 1015.0 |
| 20260505063532 | 53 | 0 | 0.0 | 1.7 | 0.00 | 0.00 | 0.00 | 80 | 1015.0 |
| 20260505063058 | 53 | 0 | 0.0 | 1.7 | 0.00 | 0.00 | 0.00 | 80 | 1015.0 |
| 20260505062532 | 53 | 98 | 0.0 | 1.7 | 0.00 | 0.00 | 0.00 | 80 | 1015.0 |
| 20260505062032 | 54 | 0 | 0.0 | 1.7 | 0.00 | 0.00 | 0.00 | 80 | 1015.1 |
| 20260505061612 | 54 | 0 | 0.0 | 1.7 | 0.00 | 0.00 | 0.00 | 79 | 1015.0 |
| 20260505061031 | 54 | 98 | 0.0 | 2.6 | 0.00 | 0.00 | 0.00 | 79 | 1015.2 |
| 20260505060534 | 54 | 98 | 0.0 | 2.6 | 0.00 | 0.00 | 0.00 | 79 | 1015.2 |
| 20260505055533 | 54 | 0 | 0.0 | 4.3 | 0.00 | 0.00 | 0.00 | 78 | 1015.2 |
| 20260505055033 | 54 | 337 | 0.9 | 4.3 | 0.00 | 0.00 | 0.00 | 78 | 1015.2 |
| 20260505054554 | 54 | 240 | 0.0 | 7.0 | 0.00 | 0.00 | 0.00 | 77 | 1015.2 |
| 20260505054033 | 54 | 238 | 0.0 | 7.0 | 0.00 | 0.00 | 0.00 | 77 | 1015.2 |
| 20260505053532 | 53 | 251 | 0.0 | 3.5 | 0.00 | 0.00 | 0.00 | 79 | 1015.1 |
| 20260505053046 | 53 | 19 | 0.9 | 3.5 | 0.00 | 0.00 | 0.00 | 79 | 1015.3 |
| 20260505052533 | 54 | 0 | 0.0 | 1.7 | 0.00 | 0.00 | 0.00 | 79 | 1015.3 |
| 20260505052033 | 54 | 86 | 0.0 | 2.6 | 0.00 | 0.00 | 0.00 | 78 | 1015.3 |
| 20260505051610 | 54 | 0 | 0.0 | 2.6 | 0.00 | 0.00 | 0.00 | 78 | 1015.4 |
| 20260505051033 | 54 | 86 | 0.0 | 2.6 | 0.00 | 0.00 | 0.00 | 77 | 1015.3 |
| 20260505050533 | 54 | 0 | 0.0 | 0.0 | 0.00 | 0.00 | 0.00 | 78 | 1015.4 |
| 20260505041550 | 55 | 0 | 0.0 | 0.0 | 0.00 | 0.00 | 0.00 | 74 | 1015.5 |
| 20260505041033 | 55 | 0 | 0.0 | 0.0 | 0.00 | 0.00 | 0.00 | 74 | 1015.5 |
| 20260505040536 | 55 | 0 | 0.0 | 0.0 | 0.00 | 0.00 | 0.00 | 73 | 1015.5 |
| 20260505040053 | 55 | 0 | 0.0 | 0.0 | 0.00 | 0.00 | 0.00 | 73 | 1015.6 |
| 20260505035533 | 56 | 0 | 0.0 | 0.0 | 0.00 | 0.00 | 0.00 | 73 | 1015.5 |
| 20260505035034 | 56 | 0 | 0.0 | 0.0 | 0.00 | 0.00 | 0.00 | 73 | 1015.7 |
| 20260505034546 | 56 | 0 | 0.0 | 0.0 | 0.00 | 0.00 | 0.00 | 72 | 1015.8 |
| 20260505034034 | 56 | 0 | 0.0 | 0.0 | 0.00 | 0.00 | 0.00 | 72 | 1015.6 |
| 20260505033534 | 56 | 0 | 0.0 | 0.0 | 0.00 | 0.00 | 0.00 | 71 | 1015.7 |
| 20260505033048 | 56 | 0 | 0.0 | 0.0 | 0.00 | 0.00 | 0.00 | 70 | 1015.7 |
| 20260505032532 | 57 | 0 | 0.0 | 0.0 | 0.00 | 0.00 | 0.00 | 69 | 1015.7 |
| 20260505032032 | 57 | 0 | 0.0 | 0.0 | 0.00 | 0.00 | 0.00 | 69 | 1015.6 |
| 20260505031553 | 57 | 0 | 0.0 | 0.0 | 0.00 | 0.00 | 0.00 | 68 | 1015.7 |
| 20260505031032 | 57 | 0 | 0.0 | 0.0 | 0.00 | 0.00 | 0.00 | 68 | 1015.6 |
| 20260505030530 | 58 | 0 | 0.0 | 0.0 | 0.00 | 0.00 | 0.00 | 67 | 1015.6 |
| 20260505030049 | 58 | 0 | 0.0 | 0.0 | 0.00 | 0.00 | 0.00 | 67 | 1015.6 |
| 20260505025531 | 58 | 0 | 0.0 | 0.0 | 0.00 | 0.00 | 0.00 | 67 | 1015.7 |
| 20260505025029 | 58 | 0 | 0.0 | 0.0 | 0.00 | 0.00 | 0.00 | 66 | 1015.6 |
| 20260505024551 | 58 | 0 | 0.0 | 0.0 | 0.00 | 0.00 | 0.00 | 65 | 1015.5 |
| 20260505024030 | 59 | 0 | 0.0 | 0.0 | 0.00 | 0.00 | 0.00 | 65 | 1015.6 |
| 20260505023530 | 59 | 0 | 0.0 | 0.0 | 0.00 | 0.00 | 0.00 | 64 | 1015.5 |
| 20260505023044 | 59 | 0 | 0.0 | 0.0 | 0.00 | 0.00 | 0.00 | 64 | 1015.5 |
| 20260505022533 | 59 | 0 | 0.0 | 0.9 | 0.00 | 0.00 | 0.00 | 63 | 1015.5 |
| 20260505022031 | 60 | 0 | 0.0 | 0.9 | 0.00 | 0.00 | 0.00 | 63 | 1015.4 |
| 20260505021544 | 60 | 86 | 0.0 | 0.9 | 0.00 | 0.00 | 0.00 | 62 | 1015.4 |
| 20260505021029 | 60 | 0 | 0.0 | 0.0 | 0.00 | 0.00 | 0.00 | 62 | 1015.4 |
| 20260505020531 | 61 | 0 | 0.0 | 0.0 | 0.00 | 0.00 | 0.00 | 61 | 1015.3 |
| 20260505020057 | 61 | 0 | 0.0 | 0.0 | 0.00 | 0.00 | 0.00 | 61 | 1015.3 |
| 20260505015531 | 62 | 0 | 0.0 | 0.9 | 0.00 | 0.00 | 0.00 | 59 | 1015.2 |
| 20260505015030 | 62 | 0 | 0.0 | 1.7 | 0.00 | 0.00 | 0.00 | 59 | 1015.1 |
| 20260505014551 | 62 | 0 | 0.0 | 1.7 | 0.00 | 0.00 | 0.00 | 58 | 1015.0 |
| 20260505014029 | 63 | 0 | 0.0 | 0.9 | 0.00 | 0.00 | 0.00 | 57 | 1015.0 |
| 20260505013532 | 64 | 86 | 0.0 | 0.0 | 0.00 | 0.00 | 0.00 | 57 | 1015.0 |
| 20260505013046 | 64 | 0 | 0.0 | 0.0 | 0.00 | 0.00 | 0.00 | 53 | 1014.8 |
| 20260505012531 | 64 | 0 | 0.0 | 0.0 | 0.00 | 0.00 | 0.00 | 53 | 1015.0 |
| 20260505012031 | 65 | 0 | 0.0 | 0.0 | 0.00 | 0.00 | 0.00 | 53 | 1014.9 |
| 20260505011544 | 65 | 0 | 0.0 | 0.0 | 0.00 | 0.00 | 0.00 | 52 | 1014.8 |
| 20260505011032 | 66 | 0 | 0.0 | 0.0 | 0.00 | 0.00 | 0.00 | 52 | 1014.8 |
| 20260505010530 | 67 | 0 | 0.0 | 0.0 | 0.00 | 0.00 | 0.00 | 50 | 1014.7 |
| 20260505010053 | 67 | 0 | 0.0 | 0.0 | 0.00 | 0.00 | 0.00 | 47 | 1014.8 |
| 20260505005530 | 67 | 0 | 0.0 | 5.2 | 0.00 | 0.00 | 0.00 | 48 | 1014.5 |
| 20260505005030 | 68 | 0 | 0.0 | 5.2 | 0.00 | 0.00 | 0.00 | 46 | 1014.6 |
| 20260505004541 | 68 | 87 | 0.0 | 5.2 | 0.00 | 0.00 | 0.00 | 47 | 1014.4 |
| 20260505004028 | 68 | 0 | 0.0 | 3.5 | 0.00 | 0.00 | 0.00 | 47 | 1014.5 |
| 20260505003531 | 68 | 0 | 0.0 | 0.9 | 0.00 | 0.00 | 0.00 | 46 | 1014.4 |
| 20260505003041 | 68 | 0 | 0.0 | 1.7 | 0.00 | 0.00 | 0.00 | 46 | 1014.4 |
| 20260505002529 | 68 | 0 | 0.0 | 2.6 | 0.00 | 0.00 | 0.00 | 47 | 1014.4 |
| 20260505002029 | 69 | 0 | 0.0 | 2.6 | 0.00 | 0.00 | 0.00 | 45 | 1014.4 |
| 20260505001544 | 69 | 53 | 0.0 | 1.7 | 0.00 | 0.00 | 0.00 | 46 | 1014.3 |
| 20260505001029 | 69 | 0 | 0.0 | 0.0 | 0.00 | 0.00 | 0.00 | 47 | 1014.3 |
| 20260505000530 | 70 | 0 | 0.0 | 0.0 | 0.00 | 0.00 | 0.00 | 45 | 1014.2 |
| 20260505000049 | 70 | 0 | 0.0 | 0.0 | 0.00 | 0.00 | 0.00 | 44 | 1014.2 |
| 20260504235531 | 71 | 0 | 0.0 | 0.0 | 0.00 | 0.00 | 0.00 | 43 | 1014.2 |
| 20260504235032 | 71 | 0 | 0.0 | 0.9 | 0.00 | 0.00 | 0.00 | 42 | 1014.1 |
| 20260504234550 | 72 | 0 | 0.0 | 0.9 | 0.00 | 0.00 | 0.00 | 42 | 1014.1 |
| 20260504234030 | 72 | 0 | 0.0 | 3.5 | 0.00 | 0.00 | 0.00 | 42 | 1014.1 |
| 20260504233532 | 72 | 0 | 0.0 | 3.5 | 0.00 | 0.00 | 0.00 | 44 | 1014.0 |
| 20260504233103 | 73 | 0 | 0.0 | 1.7 | 0.00 | 0.00 | 0.00 | 43 | 1013.9 |
| 20260504232532 | 73 | 0 | 0.0 | 0.9 | 0.00 | 0.00 | 0.00 | 43 | 1013.7 |
| 20260504232033 | 73 | 0 | 0.0 | 2.6 | 0.00 | 0.00 | 0.00 | 42 | 1013.8 |
| 20260504231545 | 74 | 0 | 0.0 | 2.6 | 0.00 | 0.00 | 0.00 | 41 | 1013.7 |
| 20260504231031 | 74 | 0 | 0.0 | 0.0 | 0.00 | 0.00 | 0.00 | 40 | 1013.8 |
| 20260504230533 | 75 | 0 | 0.0 | 0.9 | 0.00 | 0.00 | 0.00 | 39 | 1013.7 |
| 20260504230054 | 75 | 0 | 0.0 | 2.6 | 0.00 | 0.00 | 0.00 | 39 | 1013.6 |
| 20260504225535 | 75 | 0 | 0.0 | 3.5 | 0.00 | 0.00 | 0.00 | 38 | 1013.8 |
| 20260504225032 | 75 | 0 | 0.0 | 3.5 | 0.00 | 0.00 | 0.00 | 38 | 1013.7 |
| 20260504224552 | 75 | 0 | 0.0 | 5.2 | 0.00 | 0.00 | 0.00 | 38 | 1013.8 |
| 20260504224033 | 76 | 0 | 0.0 | 5.2 | 0.00 | 0.00 | 0.00 | 37 | 1013.7 |
| 20260504223533 | 76 | 0 | 0.0 | 5.2 | 0.00 | 0.00 | 0.00 | 35 | 1013.8 |
| 20260504223048 | 76 | 0 | 0.0 | 3.5 | 0.00 | 0.00 | 0.00 | 37 | 1013.8 |
| 20260504222535 | 77 | 0 | 0.0 | 3.5 | 0.00 | 0.00 | 0.00 | 37 | 1013.9 |
| 20260504222033 | 77 | 0 | 0.0 | 6.1 | 0.00 | 0.00 | 0.00 | 37 | 1013.9 |
| 20260504221544 | 77 | 0 | 0.0 | 6.1 | 0.00 | 0.00 | 0.00 | 36 | 1013.9 |
| 20260504221032 | 77 | 0 | 0.0 | 0.0 | 0.00 | 0.00 | 0.00 | 38 | 1013.9 |
| 20260504220532 | 77 | 0 | 0.0 | 3.5 | 0.00 | 0.00 | 0.00 | 36 | 1013.9 |
| 20260504220054 | 77 | 0 | 0.0 | 3.5 | 0.00 | 0.00 | 0.00 | 37 | 1013.9 |
| 20260504215536 | 78 | 0 | 0.0 | 2.6 | 0.00 | 0.00 | 0.00 | 37 | 1013.9 |
| 20260504215030 | 78 | 0 | 0.0 | 3.5 | 0.00 | 0.00 | 0.00 | 35 | 1013.9 |
| 20260504214554 | 78 | 0 | 0.0 | 3.5 | 0.00 | 0.00 | 0.00 | 36 | 1013.9 |
| 20260504214032 | 78 | 0 | 0.0 | 3.5 | 0.00 | 0.00 | 0.00 | 35 | 1013.8 |
| 20260504213533 | 78 | 0 | 0.0 | 3.5 | 0.00 | 0.00 | 0.00 | 36 | 1013.9 |
| 20260504213047 | 79 | 0 | 0.9 | 3.5 | 0.00 | 0.00 | 0.00 | 35 | 1013.9 |